Showing default

JILIN-01-06, 43024

Orbit data source: Space-Track

JILIN-01-06, 43024 is a payload satellite owned by Changguang WJ (CN) in SSO that was launched on Tue, 21 Nov 2017 UTC via a CHANG ZHENG 6 launch vehicle from the Taiyaun Space Center, China (TSC). Payload-class satellites include a variety of spacecraft equipped with specific instruments for various scientific and technological missions. These include communications satellites like Starlink; space stations such as the ISS; scientific satellites like the Hubble; Earth observation satellites from companies like Planet Labs, Umbra, and HawkEye 360; GPS; miniature CubeSats for education and research; and military/defense satellites.

Loading next visibility...
Identifier
43024, 2017-074C
Orbit
SSO
Country
Flag of CNCN / PRC
Related business
Manufacturer
HARB/CIOMP
Mission
Operational Commercial Imaging
Bus & Motor
JL-1, Unknown motor
Mass
95 kg wet, 95 kg dry
Launch date (UTC)
2017-11-21 (8 years ago)
Launch vehicle
CHANG ZHENG 6
Launch site
Taiyaun Space Center, China (TSC)
Object type
Payload
Rocket body
Debris
Shape & HBR
Box + 2 Pan, 0.8 m
Radar Cross Section
2.000 m², Medium (>0.1 m² and < 1m²)

Expand to show TLE details & history
Last TLE update: 20 hours ago

TLE from 20 hours ago
0 JILIN-01-06
1 43024U 17074C   25259.61567834  .00010022  00000-0  36092-3 0  9993
2 43024  97.4773 355.4030 0008756 127.4869 232.7168 15.28740043431961
Epoch: 2025-09-16T14:46Z
TLE epoch observation values (Epoch: 2025-09-16T14:46:34.608Z)
Latitude
-0.00004°
Longitude
137.95537°
Altitude
486.319 km
Speed
7.62 km/s
True Right ascension
23h 41m 36s
True Declination
0° 00' 00"
Sunlit
Object was in full shadow at epoch
Visualization orbit readout
Latitude
Unknown
Longitude
Unknown
Altitude
Unknown
Speed
Unknown
Apparent Right ascension
Unknown
Apparent Declination
Unknown
Sunlit
N/A
Visualization observer readout
Local Sidereal Time
03:03:19
Azimuth
Unknown
Elevation
Unknown
Doppler factor
Unknown
Orbital elements
Apogee altitude
482.537 km
Perigee altitude
470.533 km
Semi-major axis
6,854.672 km
Eccentricity
0.00088
Inclination
97.4773°
RAAN
355.403°
Arg. of periapsis
127.4869°
True anomaly
232.63702°
Mean anomaly
232.7168°
Eccentric anomaly
232.6769°
Mean motion
3.8244 °/min
Orbital period
94.13 mins
BSTAR
0.00036092
Loading maneuver chart data...
Computing Atmospheric mass density...
Loading historical data...
Loading historical data...
Loading historical data...
Loading historical data...
Loading historical data...
Loading historical data...
Loading historical data...
Other satellites on launch #74 in the year 2017 (2017-11-21 UTC)

Documentation

Showing up to 5 results
|